W5SDC Weather Reports


time (UTC)temp
C
wind
direction
speed
KPH
gust
KPH
rain 1hr
cm
rain 24hr
cm
rain mn
cm
humidity
%
barometer
mb
20260506222016 16 328 12.9 22.5 0.00 0.03 0.03 89 1013.4
20260506221522 16 321 11.3 19.3 0.00 0.03 0.03 90 1013.5
20260506221049 15 302 12.9 16.1 0.00 0.03 0.03 90 1013.6
20260506220517 15 341 14.5 20.9 0.00 0.03 0.03 90 1013.6
20260506220024 15 323 14.5 19.3 0.00 0.03 0.03 90 1013.4
20260506215530 15 332 16.1 20.9 0.00 0.03 0.03 89 1013.4
20260506215019 16 355 12.9 22.5 0.00 0.03 0.03 89 1013.4
20260506214525 16 325 12.9 19.3 0.00 0.03 0.03 89 1013.4
20260506214032 16 330 14.5 20.9 0.00 0.03 0.03 89 1013.4
20260506213540 16 336 16.1 24.1 0.00 0.03 0.03 88 1013.4
20260506213027 16 314 16.1 24.1 0.00 0.03 0.03 88 1013.4
20260506212515 16 325 16.1 19.3 0.00 0.03 0.03 88 1013.4
20260506212022 16 345 17.7 25.7 0.00 0.03 0.03 88 1013.5
20260506211528 16 325 14.5 22.5 0.00 0.03 0.03 88 1013.5
20260506211017 16 337 16.1 25.7 0.00 0.03 0.03 88 1013.6
20260506210523 16 331 14.5 24.1 0.00 0.03 0.03 88 1013.6
20260506210030 16 307 16.1 22.5 0.00 0.03 0.03 88 1013.7
20260506205538 16 344 17.7 20.9 0.00 0.03 0.03 88 1013.7
20260506205025 17 319 17.7 24.1 0.00 0.03 0.03 85 1013.7
20260506204551 17 318 14.5 19.3 0.00 0.03 0.03 86 1013.7
20260506204020 16 315 16.1 22.5 0.00 0.03 0.03 87 1013.7
20260506203527 16 312 14.5 24.1 0.00 0.03 0.03 87 1013.8
20260506203033 16 332 17.7 24.1 0.00 0.03 0.03 88 1013.8
20260506202541 16 328 20.9 25.7 0.00 0.03 0.03 87 1013.6
20260506202028 17 324 17.7 22.5 0.00 0.03 0.03 86 1013.6
20260506201516 17 330 16.1 27.4 0.00 0.03 0.03 86 1013.6
20260506201043 17 339 14.5 19.3 0.00 0.03 0.03 85 1013.6
20260506200529 17 333 12.9 25.7 0.00 0.03 0.03 85 1013.6
20260506200038 17 327 20.9 29.0 0.00 0.03 0.03 85 1013.4
20260506195524 18 330 19.3 25.7 0.00 0.03 0.03 84 1013.4
20260506195051 18 312 19.3 24.1 0.00 0.03 0.03 85 1013.4
20260506194519 18 327 17.7 27.4 0.00 0.03 0.03 84 1013.4
20260506194026 18 326 16.1 25.7 0.00 0.03 0.03 85 1013.4
20260506193532 18 328 16.1 22.5 0.00 0.03 0.03 86 1013.4
20260506193021 18 338 19.3 20.9 0.00 0.03 0.03 86 1013.4
20260506192527 18 343 17.7 24.1 0.00 0.03 0.03 86 1013.4
20260506192016 18 338 16.1 25.7 0.00 0.03 0.03 86 1013.5
20260506191523 18 328 17.7 22.5 0.00 0.03 0.03 86 1013.6
20260506191029 19 324 14.5 22.5 0.00 0.03 0.03 86 1013.7
20260506190518 19 308 11.3 20.9 0.00 0.03 0.03 86 1013.7
20260506190024 19 323 14.5 19.3 0.00 0.03 0.03 86 1013.5
20260506185531 20 314 16.1 22.5 0.00 0.03 0.03 85 1013.5
20260506185019 20 329 17.7 22.5 0.00 0.03 0.03 85 1013.3
20260506184526 21 340 17.7 25.7 0.00 0.03 0.03 83 1013.2
20260506184032 22 306 14.5 20.9 0.00 0.03 0.03 81 1013.2
20260506183541 22 324 12.9 24.1 0.00 0.03 0.03 80 1013.1
20260506183027 23 359 11.3 16.1 0.00 0.03 0.03 80 1013.1
20260506182535 23 317 12.9 19.3 0.00 0.03 0.03 77 1013.2
20260506182042 24 308 9.7 12.9 0.00 0.03 0.03 77 1013.2
20260506181528 23 333 8.0 9.7 0.00 0.03 0.03 78 1013.2
20260506181037 23 3 9.7 14.5 0.00 0.03 0.03 77 1013.1
20260506180524 23 300 9.7 12.9 0.00 0.03 0.03 77 1013.1
20260506180030 23 333 8.0 12.9 0.00 0.03 0.03 79 1012.7
20260506175518 23 326 9.7 12.9 0.00 0.03 0.03 80 1012.7
20260506175025 22 123 6.4 11.3 0.00 0.03 0.03 81 1012.6
20260506174532 22 137 6.4 11.3 0.00 0.03 0.03 81 1012.6
20260506174020 22 2 6.4 11.3 0.00 0.03 0.03 81 1012.6
20260506173527 21 7 6.4 9.7 0.00 0.03 0.03 82 1012.7
20260506173015 21 359 8.0 12.9 0.00 0.03 0.03 83 1012.7
20260506172521 21 73 6.4 9.7 0.00 0.03 0.03 84 1012.7
20260506172028 21 25 8.0 11.3 0.00 0.03 0.03 84 1012.7
20260506171516 20 82 9.7 14.5 0.03 0.03 0.03 85 1012.7
20260506171023 20 53 9.7 12.9 0.03 0.03 0.03 86 1012.7
20260506170529 20 58 9.7 12.9 0.03 0.03 0.03 87 1012.7
20260506170058 20 79 9.7 11.3 0.03 0.03 0.03 89 1012.7
20260506165524 19 39 9.7 14.5 0.03 0.03 0.03 91 1012.7
20260506165031 18 10 11.3 14.5 0.03 0.03 0.03 92 1012.9
20260506164519 18 59 6.4 12.9 0.03 0.03 0.03 93 1012.9
20260506164026 18 41 9.7 12.9 0.03 0.03 0.03 94 1013.1
20260506163553 17 36 9.7 12.9 0.03 0.03 0.03 96 1013.9
20260506163021 17 339 12.9 16.1 0.03 0.03 0.03 97 1013.9
20260506162527 16 345 12.9 19.3 0.03 0.03 0.03 98 1013.9
20260506162016 16 336 12.9 17.7 0.03 0.03 0.03 98 1013.9
20260506161522 16 354 9.7 12.9 0.00 0.00 0.00 98 1014.0
20260506161029 16 349 12.9 17.7 0.00 0.00 0.00 98 1014.2
20260506160537 16 323 17.7 25.7 0.00 0.00 0.00 98 1014.2
20260506160024 16 320 22.5 33.8 0.00 0.00 0.00 98 1014.2
20260506155611 16 336 22.5 29.0 0.00 0.00 0.00 98 1014.2
20260506155019 16 314 22.5 32.2 0.00 0.00 0.00 98 1014.0
20260506154526 16 309 20.9 33.8 0.00 0.00 0.00 97 1013.9
20260506154032 17 324 17.7 25.7 0.00 0.00 0.00 97 1013.9
20260506153520 17 331 16.1 30.6 0.00 0.00 0.00 97 1014.0
20260506153027 17 308 19.3 24.1 0.00 0.00 0.00 97 1014.0
20260506152515 17 343 19.3 27.4 0.00 0.00 0.00 97 1013.9
20260506152022 17 320 19.3 27.4 0.00 0.00 0.00 97 1013.9
20260506151528 18 321 19.3 30.6 0.00 0.00 0.00 96 1013.6
20260506151017 18 325 14.5 19.3 0.00 0.00 0.00 96 1013.2
20260506150543 18 323 14.5 22.5 0.00 0.00 0.00 96 1013.2
20260506150030 18 322 19.3 25.7 0.00 0.00 0.00 96 1012.7
20260506145518 18 354 19.3 29.0 0.00 0.00 0.00 95 1012.7
20260506145025 18 331 17.7 20.9 0.00 0.00 0.00 95 1012.4
20260506144532 19 350 16.1 20.9 0.00 0.00 0.00 95 1012.2
20260506144020 20 344 19.3 29.0 0.00 0.00 0.00 94 1012.1
20260506143526 21 334 17.7 25.7 0.00 0.00 0.00 93 1011.7
20260506143033 22 331 16.1 22.5 0.00 0.00 0.00 91 1011.7
20260506142521 26 349 9.7 22.5 0.00 0.00 0.00 88 1011.3
20260506142048 26 62 3.2 4.8 0.00 0.00 0.00 89 1011.2
20260506141516 26 90 3.2 6.4 0.00 0.00 0.00 89 1011.2
20260506141103 26 134 4.8 6.4 0.00 0.00 0.00 90 1011.2
20260506140529 25 161 4.8 9.7 0.00 0.00 0.00 91 1011.2
20260506140018 25 129 4.8 6.4 0.00 0.00 0.00 91 1011.3
20260506135525 25 108 3.2 4.8 0.00 0.00 0.00 92 1011.3
20260506135031 25 194 1.6 6.4 0.00 0.00 0.00 93 1011.0
20260506134519 25 157 4.8 8.0 0.00 0.00 0.00 93 1010.8
20260506134026 24 148 1.6 6.4 0.00 0.00 0.00 94 1010.9
20260506133532 24 138 4.8 6.4 0.00 0.00 0.00 94 1011.0
20260506133021 24 127 1.6 4.8 0.00 0.00 0.00 94 1011.0
20260506132527 24 134 4.8 6.4 0.00 0.00 0.00 94 1010.9
20260506132016 24 122 4.8 8.0 0.00 0.00 0.00 94 1010.8
20260506131522 24 176 8.0 12.9 0.00 0.00 0.00 94 1010.7
20260506131029 25 152 8.0 11.3 0.00 0.00 0.00 94 1010.5
20260506130517 25 155 8.0 11.3 0.00 0.00 0.00 94 1010.5
20260506130024 24 153 6.4 8.0 0.00 0.00 0.00 95 1010.4
20260506125611 24 161 6.4 9.7 0.00 0.00 0.00 96 1010.4
20260506125019 24 140 4.8 8.0 0.00 0.00 0.00 96 1010.2
20260506124525 23 172 4.8 8.0 0.00 0.00 0.00 97 1010.2
20260506124052 23 149 6.4 9.7 0.00 0.00 0.00 98 1010.2
20260506123521 23 145 4.8 9.7 0.00 0.00 0.00 98 1010.2
20260506123027 23 125 4.8 6.4 0.00 0.00 0.00 99 1010.2
20260506122515 23 141 4.8 6.4 0.00 0.00 0.00 99 1010.2
20260506122042 23 171 3.2 4.8 0.00 0.00 0.00 99 1010.2
20260506121528 23 168 4.8 6.4 0.00 0.00 0.00 99 1010.2
20260506121017 23 174 4.8 8.0 0.00 0.00 0.00 99 1010.2
20260506120543 23 170 4.8 8.0 0.00 0.00 0.00 99 1010.2
20260506120030 23 161 6.4 8.0 0.00 0.00 0.00 98 1010.1
20260506115518 23 167 6.4 8.0 0.00 0.00 0.00 98 1010.1
20260506115025 23 186 6.4 6.4 0.00 0.00 0.00 98 1010.1
20260506114532 23 175 4.8 6.4 0.00 0.00 0.00 98 1010.1
20260506114020 23 157 6.4 8.0 0.00 0.00 0.00 98 1010.1
20260506113526 23 158 6.4 8.0 0.00 0.00 0.00 98 1010.3
20260506113033 23 169 4.8 9.7 0.00 0.00 0.00 98 1010.3
20260506112521 23 156 4.8 8.0 0.00 0.00 0.00 98 1010.4
20260506112028 23 183 4.8 8.0 0.00 0.00 0.00 98 1010.4
20260506111516 23 165 4.8 8.0 0.00 0.00 0.00 98 1010.3
20260506111023 23 170 3.2 6.4 0.00 0.00 0.00 98 1010.3
20260506110529 23 186 4.8 6.4 0.00 0.00 0.00 98 1010.3
20260506110018 23 190 6.4 8.0 0.00 0.00 0.00 98 1010.2
20260506105524 23 193 6.4 8.0 0.00 0.00 0.00 98 1010.2
20260506105031 23 190 4.8 8.0 0.00 0.00 0.00 97 1010.2
20260506104519 23 203 6.4 9.7 0.00 0.00 0.00 97 1010.2
20260506104046 23 194 3.2 4.8 0.00 0.00 0.00 97 1010.1
20260506103532 23 205 4.8 8.0 0.00 0.00 0.00 97 1010.0
20260506103020 23 190 6.4 9.7 0.00 0.00 0.00 97 1010.0
20260506102527 23 196 4.8 8.0 0.00 0.00 0.00 97 1009.9
20260506102015 23 182 4.8 8.0 0.00 0.00 0.00 96 1009.8
20260506101522 23 180 6.4 8.0 0.00 0.00 0.00 96 1009.8
20260506101028 23 205 4.8 11.3 0.00 0.00 0.00 96 1009.7
20260506100516 23 195 6.4 9.7 0.00 0.00 0.00 96 1009.7
20260506100023 23 207 4.8 9.7 0.00 0.00 0.00 96 1009.8
20260506095529 23 160 8.0 11.3 0.00 0.00 0.00 96 1009.8
20260506095018 23 196 6.4 8.0 0.00 0.00 0.00 96 1009.6
20260506094524 23 187 4.8 9.7 0.00 0.00 0.00 96 1009.5
20260506094111 23 182 6.4 11.3 0.00 0.00 0.00 96 1009.4
20260506093519 23 225 4.8 9.7 0.00 0.00 0.00 96 1009.3
20260506093026 23 200 6.4 9.7 0.00 0.00 0.00 96 1009.3
20260506092532 23 157 3.2 6.4 0.00 0.00 0.00 96 1009.3
20260506092021 23 163 6.4 11.3 0.00 0.00 0.00 96 1009.3
20260506091528 23 184 6.4 11.3 0.00 0.00 0.00 96 1009.2
20260506091016 23 192 6.4 12.9 0.00 0.00 0.00 96 1009.1
20260506090522 23 190 8.0 12.9 0.00 0.00 0.00 96 1009.1
20260506090049 23 175 9.7 12.9 0.00 0.00 0.00 96 1008.8
20260506085517 23 191 8.0 12.9 0.00 0.00 0.00 96 1008.8
20260506085024 23 171 8.0 12.9 0.00 0.00 0.00 96 1009.0
20260506084530 23 188 6.4 9.7 0.00 0.00 0.00 96 1009.1
20260506084019 23 196 8.0 17.7 0.00 0.00 0.00 96 1009.0
20260506083525 23 168 12.9 19.3 0.00 0.00 0.00 96 1008.9
20260506083032 23 175 11.3 17.7 0.00 0.00 0.00 96 1008.9
20260506082520 23 190 9.7 16.1 0.00 0.00 0.00 96 1008.8
20260506082107 23 189 12.9 17.7 0.00 0.00 0.00 96 1008.8
20260506081515 23 192 9.7 17.7 0.00 0.00 0.00 96 1008.9
20260506081042 23 201 11.3 14.5 0.00 0.00 0.00 96 1009.1
20260506080528 23 182 12.9 17.7 0.00 0.00 0.00 95 1009.1
20260506073020 23 185 11.3 17.7 0.00 0.00 0.00 95 1009.3
20260506072526 23 201 9.7 17.7 0.00 0.00 0.00 95 1009.4
20260506072033 23 201 11.3 17.7 0.00 0.00 0.00 95 1009.5
20260506071541 23 183 12.9 19.3 0.00 0.00 0.00 95 1009.4
20260506071028 23 180 16.1 25.7 0.00 0.00 0.00 95 1009.3
20260506070517 23 185 12.9 17.7 0.00 0.00 0.00 95 1009.3
20260506062021 23 181 11.3 17.7 0.00 0.00 0.00 95 1009.3
20260506061527 23 148 11.3 16.1 0.00 0.00 0.00 95 1009.3
20260506061016 23 184 8.0 11.3 0.00 0.00 0.00 95 1009.3
20260506060523 23 175 11.3 16.1 0.00 0.00 0.00 95 1009.3
20260506051022 24 161 11.3 19.3 0.00 0.00 0.00 95 1009.3
20260506050529 24 165 11.3 16.1 0.00 0.00 0.00 95 1009.3
20260506045030 24 192 9.7 12.9 0.00 0.00 0.00 95 1009.3
20260506044518 24 162 8.0 12.9 0.00 0.00 0.00 95 1009.3
20260506044045 24 174 11.3 14.5 0.00 0.00 0.00 95 1009.3
20260506043532 24 190 9.7 12.9 0.00 0.00 0.00 95 1009.1
20260506043020 24 174 11.3 19.3 0.00 0.00 0.00 95 1009.1
20260506042526 24 176 9.7 14.5 0.00 0.00 0.00 94 1009.2
20260506042015 24 173 9.7 14.5 0.00 0.00 0.00 94 1009.3
20260506041522 24 186 8.0 14.5 0.00 0.00 0.00 94 1009.2
20260506041028 24 181 9.7 19.3 0.00 0.00 0.00 94 1009.1
20260506040516 24 175 8.0 16.1 0.00 0.00 0.00 94 1009.1
20260506040023 24 180 9.7 14.5 0.00 0.00 0.00 94 1008.9
20260506035529 24 233 8.0 12.9 0.00 0.00 0.00 93 1008.9
20260506035018 24 189 9.7 12.9 0.00 0.00 0.00 93 1008.8
20260506034525 25 196 6.4 9.7 0.00 0.00 0.00 93 1008.8
20260506034112 25 176 9.7 19.3 0.00 0.00 0.00 92 1008.8
20260506033519 25 202 8.0 11.3 0.00 0.00 0.00 92 1008.8
20260506033106 25 192 8.0 12.9 0.00 0.00 0.00 91 1008.8
20260506032533 25 159 6.4 11.3 0.00 0.00 0.00 91 1008.6
20260506032041 25 168 9.7 11.3 0.00 0.00 0.00 90 1008.6
20260506031528 25 171 9.7 11.3 0.00 0.00 0.00 90 1008.5
20260506031016 25 165 8.0 9.7 0.00 0.00 0.00 89 1008.4
20260506030522 25 158 8.0 12.9 0.00 0.00 0.00 89 1008.4
20260506030029 25 171 9.7 14.5 0.00 0.00 0.00 89 1008.3
20260506025517 25 183 4.8 8.0 0.00 0.00 0.00 89 1008.3
20260506025024 25 167 6.4 8.0 0.00 0.00 0.00 88 1008.2
20260506024530 25 151 6.4 11.3 0.00 0.00 0.00 88 1008.1
20260506024019 25 180 6.4 11.3 0.00 0.00 0.00 88 1008.1
20260506023525 25 179 6.4 9.7 0.00 0.00 0.00 87 1007.9
20260506023032 25 190 8.0 9.7 0.00 0.00 0.00 87 1007.9
20260506022520 25 154 6.4 9.7 0.00 0.00 0.00 87 1007.8
20260506022027 25 163 6.4 9.7 0.00 0.00 0.00 87 1007.7
20260506021515 25 164 8.0 9.7 0.00 0.00 0.00 87 1007.6
20260506021022 26 163 8.0 14.5 0.00 0.00 0.00 87 1007.5
20260506020608 26 161 8.0 11.3 0.00 0.00 0.00 86 1007.5
20260506020017 26 148 8.0 11.3 0.00 0.00 0.00 86 1007.2
20260506015523 26 142 8.0 11.3 0.00 0.00 0.00 86 1007.2
20260506015030 26 146 8.0 11.3 0.00 0.00 0.00 86 1007.2
20260506014518 26 147 8.0 11.3 0.00 0.00 0.00 85 1007.2
20260506014045 26 172 8.0 14.5 0.00 0.00 0.00 85 1007.2
20260506013531 26 152 8.0 12.9 0.00 0.00 0.00 84 1007.2
20260506013019 26 174 8.0 9.7 0.00 0.00 0.00 84 1007.2
20260506012546 26 172 6.4 9.7 0.00 0.00 0.00 83 1007.1
20260506012033 26 154 6.4 9.7 0.00 0.00 0.00 82 1007.1
20260506011521 26 154 6.4 9.7 0.00 0.00 0.00 82 1007.0
20260506011028 27 167 6.4 9.7 0.00 0.00 0.00 81 1007.0
20260506010556 27 165 8.0 12.9 0.00 0.00 0.00 80 1007.0
20260506010022 27 163 8.0 11.3 0.00 0.00 0.00 80 1007.1
20260506005529 27 178 8.0 11.3 0.00 0.00 0.00 80 1007.1
20260506005017 27 206 9.7 16.1 0.00 0.00 0.00 79 1007.2
20260506004524 27 186 8.0 11.3 0.00 0.00 0.00 78 1007.2
20260506004030 28 174 8.0 12.9 0.00 0.00 0.00 78 1007.2
20260506003519 27 190 8.0 12.9 0.00 0.00 0.00 78 1007.2
20260506003026 28 173 8.0 11.3 0.00 0.00 0.00 78 1007.2
20260506002532 28 161 8.0 12.9 0.00 0.00 0.00 78 1007.3
20260506002020 28 194 8.0 12.9 0.00 0.00 0.00 78 1007.3
20260506001527 28 174 8.0 12.9 0.00 0.00 0.00 77 1007.2
20260506001015 28 193 6.4 9.7 0.00 0.00 0.00 77 1007.2
20260506000522 28 175 8.0 11.3 0.00 0.00 0.00 77 1007.2
20260506000029 28 164 6.4 9.7 0.00 0.00 0.00 76 1007.2
20260505235517 28 209 8.0 11.3 0.00 0.00 0.00 76 1007.2
20260505235023 28 202 11.3 17.7 0.00 0.00 0.00 76 1007.0
20260505234530 28 184 11.3 16.1 0.00 0.00 0.00 76 1006.9
20260505234018 28 195 9.7 16.1 0.00 0.00 0.00 76 1006.9
20260505233525 28 169 9.7 17.7 0.00 0.00 0.00 76 1006.8
20260505233031 28 197 9.7 12.9 0.00 0.00 0.00 76 1006.8
20260505232520 28 191 11.3 14.5 0.00 0.00 0.00 76 1006.8
20260505232026 28 186 12.9 17.7 0.00 0.00 0.00 75 1006.8
20260505231533 28 196 9.7 14.5 0.00 0.00 0.00 75 1006.7
20260505231021 28 175 11.3 14.5 0.00 0.00 0.00 74 1006.7
20260505230528 28 177 11.3 17.7 0.00 0.00 0.00 74 1006.7
20260505230036 28 196 11.3 14.5 0.00 0.00 0.00 74 1006.6
20260505225523 28 172 11.3 14.5 0.00 0.00 0.00 74 1006.6
20260505225029 28 177 12.9 17.7 0.00 0.00 0.00 74 1006.6
20260505224518 29 171 11.3 16.1 0.00 0.00 0.00 73 1006.6
20260505224024 29 195 11.3 19.3 0.00 0.00 0.00 73 1006.6
20260505223531 29 185 12.9 17.7 0.00 0.00 0.00 73 1006.6
20260505223019 29 198 11.3 14.5 0.00 0.00 0.00 73 1006.6
20260505222546 29 186 11.3 16.1 0.00 0.00 0.00 72 1006.5